Location: Unspecified
(0.0000°N, 0.0000°E)
Time: 06:19:44
(UTC+00:00)

Vanguard 2 Rocket - Pass Details

Date: 17 December 2017
Orbit: 554 x 3327 km, 32.9° (Epoch: 21 July)

Event Time Altitude Azimuth Distance (km) Brightness Sun altitude
Exits shadow 05:19:14 - 272° (W) 6,150 10.5 -8.5°
Reaches altitude 10° 05:22:43 10° 264° (W) 5,368 10.3 -7.7°
Maximum altitude 05:33:15 23° 219° (SW) 3,479 9.7 -5.2°
Drops below altitude 10° 05:40:35 10° 170° (S) 3,602 10.5 -3.6°
Sets 05:43:54 0° 155° (SSE) 4,187 11.2 -2.8°
